CDT,Max TemperatureF,Mean TemperatureF,Min TemperatureF,Max Dew PointF,MeanDew PointF,Min DewpointF,Max Humidity, Mean Humidity, Min Humidity, Max Sea Level PressureIn, Mean Sea Level PressureIn, Min Sea Level PressureIn, Max VisibilityMiles, Mean VisibilityMiles, Min VisibilityMiles, Max Wind SpeedMPH, Mean Wind SpeedMPH, Max Gust SpeedMPH,PrecipitationIn, CloudCover, Events, WindDirDegrees
2011-10-1,78,63,48,49,45,41,86,57,28,30.15,30.09,30.04,10,10,10,15,4,20,0.00,0,,353
2011-10-2,73,60,46,50,46,42,93,63,33,30.23,30.17,30.14,10,10,10,14,4,,0.00,0,,1
2011-10-3,78,62,45,52,45,38,93,59,24,30.27,30.21,30.17,10,10,10,9,1,18,0.00,0,Rain,38
2011-10-4,82,64,46,56,48,43,93,60,26,30.28,30.21,30.16,10,10,10,13,1,31,0.00,0,,20
2011-10-5,85,67,49,59,51,44,93,59,25,30.21,30.16,30.10,10,10,9,17,2,31,0.00,0,,127
2011-10-6,83,68,53,62,56,50,97,67,37,30.20,30.15,30.12,10,10,9,15,3,36,0.00,0,,105
2011-10-7,84,69,54,59,56,52,93,65,37,30.25,30.18,30.14,10,9,6,15,4,40,0.00,0,,97
2011-10-8,84,70,55,63,59,53,93,70,46,30.23,30.16,30.11,10,10,9,17,4,21,0.00,1,,87
2011-10-9,83,72,61,61,59,55,84,66,48,30.13,30.07,29.99,10,10,10,17,6,32,0.00,2,,78
2011-10-10,84,73,61,63,62,59,93,70,47,30.03,29.95,29.89,10,10,10,14,4,32,0.00,3,,24
2011-10-11,71,68,65,64,62,61,87,80,73,29.91,29.88,29.85,10,10,6,10,4,12,T,8,,4
2011-10-12,79,72,65,65,64,63,93,76,58,29.88,29.84,29.76,10,8,2,23,1,40,0.49,7,Rain-Thunderstorm,83
2011-10-13,81,69,57,64,60,54,93,66,39,29.88,29.79,29.75,10,9,2,17,5,23,0.01,0,,284
2011-10-14,82,67,51,59,52,43,96,61,26,30.03,29.96,29.88,10,10,7,9,0,0,0.00,0,,338
2011-10-15,86,68,50,61,53,47,93,60,27,30.12,30.08,30.04,10,9,2,12,0,0,0.00,0,,50
2011-10-16,88,70,51,62,54,48,93,61,29,30.16,30.08,30.01,10,10,4,0,0,0,0.00,0,,175
2011-10-17,87,69,50,62,55,47,93,63,32,30.01,29.92,29.81,10,10,5,10,2,28,0.00,0,,137
2011-10-18,83,68,52,67,60,44,100,76,51,29.79,29.75,29.59,10,4,0,24,7,35,T,7,Fog,314
2011-10-19,61,51,40,41,38,32,89,63,37,30.02,29.87,29.79,10,10,10,21,8,31,0.00,2,,314
2011-10-20,66,51,36,40,34,29,92,59,26,30.14,30.08,30.03,10,10,5,15,4,21,0.00,0,Rain,290
2011-10-21,73,54,35,44,35,27,92,57,22,30.25,30.19,30.14,10,5,1,15,2,20,0.00,0,,330
2011-10-22,75,57,39,48,40,36,92,60,27,30.24,30.15,30.09,10,10,10,12,1,16,0.00,0,,13
2011-10-23,76,58,39,57,46,37,92,64,35,30.12,30.08,30.03,10,10,10,8,2,21,0.00,2,,154
2011-10-24,75,62,49,59,54,48,93,70,46,30.22,30.15,30.09,10,8,2,13,4,18,0.00,4,Rain,315
2011-10-25,81,63,45,53,47,43,93,61,28,30.25,30.18,30.10,10,10,8,13,2,,0.00,0,,168
2011-10-26,80,64,47,57,51,45,89,64,39,30.11,30.04,29.96,10,9,2,12,2,41,0.00,0,,190
2011-10-27,83,66,49,59,52,46,93,65,36,29.97,29.93,29.86,10,7,0,15,1,41,0.00,3,Fog,286
2011-10-28,63,57,50,58,53,44,90,81,71,30.13,29.99,29.91,10,9,6,15,7,22,0.01,7,Rain,348
2011-10-29,66,52,37,43,36,29,92,59,26,30.23,30.16,30.12,10,10,10,21,7,28,0.00,0,,4
2011-10-30,66,49,32,46,36,30,92,62,32,30.26,30.21,30.17,10,10,9,8,1,12,0.00,0,,87
2011-10-31,73,55,36,47,39,34,93,61,29,30.24,30.20,30.14,10,10,7,12,2,25,0.00,0,Rain,5